User: anonymous   Login
Location: Austin, TX
(30.3000°N, 97.7500°W)
Time: 05:20:46
(UTC-05:00)
Language:

Cosmos 2082 Rocket - Orbit

View from above orbital plane
View from above orbital plane
View from above satellite
View from above satellite

Ground track
Ground track

The orbit data is extracted from the following two-line orbital elements,

1 20625U 90046B   15213.39526375  .00000188  00000-0  12245-3 0  9990
2 20625 070.9989 148.4320 0012391 066.2194 072.7932 14.14576545300853
Epoch (UTC): 01 August 2015 09:29:10
Eccentricity: 0.0012391
inclination: 70.9989°
perigee height: 835 km
apogee height: 853 km
right ascension of ascending node: 148.4320°
argument of perigee: 66.2194°
revolutions per day: 14.14576545
mean anomaly at epoch: 72.7932°
orbit number at epoch: 30085

The dashed part of the orbit path shows where the satellite is in the earth's shadow,  

DLR